Regional Weather Roundup
Issued by NWS New Orleans/Baton Rouge, LA

Home | Current Version | Previous Version | Text Only | Print | Product List | Glossary Off
Versions: 1 2 3 4 5 6 7 8 9 10 11 12 13 14 15 16 17 18 19 20 21 22 23 24 25 26 27 28 29 30 31 32 33 34 35 36 37 38 39 40 41 42 43 44 45 46 47 48 49 50

167
ASUS44 KLIX 181901
RWRLIX
NEW ORLEANS REGIONAL WEATHER ROUNDUP
NATIONAL WEATHER SERVICE NEW ORLEANS LA
100 PM CST THU DEC 18 2014

NOTE: "FAIR" INDICATES FEW OR NO CLOUDS BELOW 12,000 FEET WITH NO
      SIGNIFICANT WEATHER AND/OR OBSTRUCTIONS TO VISIBILITY.
      SKY/WX - SKY CONDITION AND SIGNIFICANT WEATHER.
      TMP - AIR TEMPERATURE.     DP    - DEWPOINT TEMPERATURE.
      RH  - RELATIVE HUMIDITY.   PRES  - PRESSURE.
      HI  - HEAT INDEX.          WCI   - WIND CHILL INDEX.

*  THESE STATIONS ARE NOT NWS OR FAA STATIONS AND ARE NOT UNDER
   NWS QUALITY CONTROL.

LAZ038-040-048-061>063-065>067-069-182000-
SOUTHEAST LOUISIANA

CITY           SKY/WX    TMP DP  RH WIND       PRES   REMARKS
N.O. AUDUBON     N/A     67  56  67 MISG        N/A
N.O. INTL ARPT CLOUDY    67  53  61 SE12      30.11F
N.O. LAKEFRONT PTSUNNY   66  52  60 E12       30.11F
N.O. DOWNTOWN* CLOUDY    66  52  59 SE9       30.12F
SLIDELL        MOSUNNY   66  51  58 SE9       30.11F
BATON ROUGE    CLOUDY    64  52  64 SE8       30.09F
BOOTHVILLE     MOSUNNY   66  57  72 E10       30.13F
BELLE CHASSE   PTSUNNY   66  53  63 E10       30.12F
BOGALUSA*        N/A     69  48  48 S6        30.12F
GALLIANO*      NOT AVBL
NEW ROADS*     NOT AVBL
GONZALES*      NOT AVBL
HAMMOND*       NOT AVBL
HOUMA*         PTSUNNY   70  57  64 SE8       30.11F
PORT FOURCHON* CLEAR     66  59  77 E14       30.14F

$$

MSZ070-080>082-182000-
SOUTHERN MISSISSIPPI

CITY           SKY/WX    TMP DP  RH WIND       PRES   REMARKS
MCCOMB         CLOUDY    60  47  61 VRB3      30.11F
GULFPORT       PTSUNNY   60  42  51 SE9       30.14F
BILOXI         SUNNY     60  44  54 S9        30.14F
PASCAGOULA     MOSUNNY   65  43  44 CALM      30.13F
STENNIS ARPT*  MOSUNNY   63  41  45 S8        30.14F

$$

COASTAL OBSERVATIONS
LAKE AND NEARSHORE STATIONS

STATION/POSITION TIME  TEMP    WIND        PRES    WAVE
                       AIR SEA DIR/SP/G            HT/PER
                 (UTC) (F)     (DEG/KT/KT) (MB)    (FT/S)
PASCAGOULA       1800   61     140/  5/  7 1020.4
WAVELAND YACHT   1800   56     140/  8/  9 1020.0
GRAND ISLE       1800   65 61  100/  8/ 12 1020.7
SOUTHWEST PASS   1800   67                 1020.3
NEW CANAL        1800   66 58  140/  2/  6 1020.6
SHELL BEACH      1800   62 60  110/ 11/ 13 1020.5

OFFSHORE STATIONS

STATION/POSITION TIME  TEMP    WIND        PRES    WAVE
                       AIR SEA DIR/SP/G            HT/PER
                 (UTC) (F)     (DEG/KT/KT) (MB)    (FT/S)
64 S DAUPHIN ISL 1900   66 74  130/  6/  8 1020.0    1/ 6

$$




USA.gov is the U.S. government's official web portal to all federal, state and local government web resources and services.